This is the latest recevied weather packets stored in our database for station/object WZ9ZZZ-1. If no packets are shown the sender has not sent any weather packets the latest 10 day(s).
| Time | Temp. | Humidity | Pressure | Rain* | Wind** | Luminosity | Snow |
|---|---|---|---|---|---|---|---|
| 1777647916 | 17.78° C | 96% | 1014.5 hPa | 0 mm | - | 25 W/m² | - |
| 1777647613 | 17.78° C | 96% | 1014.8 hPa | 0 mm | - | 17 W/m² | - |
| 1777647309 | 18.33° C | 96% | 1014.8 hPa | 1.27 mm | - | 21 W/m² | - |
| 1777647008 | 18.33° C | 96% | 1014.5 hPa | 4.32 mm | - | 62 W/m² | - |
| 1777646703 | 17.78° C | 96% | 1014.4 hPa | 6.1 mm | - | 112 W/m² | - |
| 1777646398 | 17.78° C | 96% | 1014.5 hPa | 6.1 mm | - | 37 W/m² | - |
| 1777646095 | 17.78° C | 96% | 1014 hPa | 1.78 mm | - | 32 W/m² | - |
| 1777645791 | 17.78° C | 96% | 1015.8 hPa | 0 mm | - | 16 W/m² | - |
| 1777645490 | 18.33° C | 96% | 1015.1 hPa | 0 mm | - | 9 W/m² | - |
| 1777645184 | 18.33° C | 96% | 1016.1 hPa | 0 mm | - | 6 W/m² | - |
| 1777644881 | 18.33° C | 96% | 1014.6 hPa | 0 mm | - | 23 W/m² | - |
| 1777644579 | 18.33° C | 96% | 1014.3 hPa | 0 mm | - | 17 W/m² | - |
| 1777644274 | 18.33° C | 96% | 1014.9 hPa | 0 mm | - | 20 W/m² | - |
| 1777643971 | 18.33° C | 96% | 1014.9 hPa | 0 mm | - | 23 W/m² | - |
| 1777643668 | 18.33° C | 96% | 1015.1 hPa | 0 mm | - | 15 W/m² | - |
| 1777643366 | 18.33° C | 96% | 1015.3 hPa | 0 mm | - | 12 W/m² | - |
| 1777643062 | 18.89° C | 96% | 1015 hPa | 0 mm | - | 12 W/m² | - |
| 1777642758 | 18.89° C | 96% | 1015.5 hPa | 0 mm | - | 7 W/m² | - |
| 1777642456 | 18.89° C | 96% | 1015.8 hPa | 0 mm | - | 6 W/m² | - |
| 1777642152 | 18.89° C | 96% | 1015.9 hPa | 0 mm | - | 10 W/m² | - |
| 1777641849 | 18.89° C | 96% | 1015.9 hPa | 0 mm | - | 12 W/m² | - |
| 1777641543 | 18.89° C | 96% | 1015.6 hPa | 0 mm | - | 13 W/m² | - |
| 1777641238 | 18.89° C | 96% | 1014.8 hPa | 0 mm | - | 16 W/m² | - |
| 1777640935 | 18.89° C | 96% | 1015.3 hPa | 0 mm | - | 15 W/m² | - |
| 1777640632 | 18.89° C | 96% | 1015 hPa | 0 mm | - | 13 W/m² | - |
* Rain latest hour (hover to see other rain measurements)
** Current wind speed in m/s (hover to see current wind gust speed)